QPF
0.00 0.00 0.00 0.00 0.00 0.00 0.00 0.00 0.00 0.00 0.00 0.00 0.00 0.00 0.00 0.00 0.00 0.00 0.00 0.00 0.00 0.00 0.00 0.00 0.00 0.00 0.00 0.00 0.00 0.00 0.00 0.00 0.00 0.00 0.00 0.00 0.00 0.00 0.00 0.00 0.00 0.00 0.00 0.00 0.00
0.00 0.00 0.00 0.00 0.00 0.00 0.00 0.00 0.00 0.00 0.00 0.00 0.00 0.00 0.00 0.00 0.00 0.00 0.00 0.00 0.00 0.00 0.00 0.00 0.00 0.00 0.00 0.00 0.00 0.00 0.00 0.00 0.00 0.00 0.00 0.00 0.00 0.00 0.00 0.00 0.00 0.00 0.00 0.00 0.00
0.00 0.00 0.00 0.00 0.00 0.00 0.00 0.00 0.00 0.00 0.00 0.00 0.00 0.00 0.00 0.00 0.00 0.00 0.00 0.00 0.00 0.00 0.00 0.00 0.00 0.00 0.00 0.00 0.00 0.00 0.00 0.00 0.00 0.00 0.00 0.00 0.00 0.00 0.00 0.00 0.00 0.00 0.00 0.00 0.00
0.00 0.00 0.00 0.00 0.00 0.00 0.00 0.00 0.00 0.00 0.00 0.00 0.00 0.00 0.00 0.00 0.00 0.00 0.00 0.00 0.00 0.00 0.00 0.00 0.00 0.00 0.00 0.00 0.00 0.00 0.00 0.00 0.00 0.00 0.00 0.00 0.00 0.00 0.00 0.00 0.00 0.00 0.00 0.00 0.00
0.00 0.00 0.00 0.00 0.00 0.00 0.00 0.00 0.00 0.00 0.00 0.00 0.00 0.00 0.00 0.00 0.00 0.00 0.00 0.00 0.00 0.00 0.00 0.00 0.00 0.00 0.00 0.00 0.00 0.00 0.00 0.00 0.00 0.00 0.00 0.00 0.00 0.00 0.00 0.00 0.00 0.00 0.00 0.00 0.00
0.00 0.00 0.00 0.00 0.00 0.00 0.00 0.00 0.00 0.00 0.00 0.00 0.00 0.00 0.00 0.00 0.00 0.00 0.00 0.00 0.00 0.00 0.00 0.00 0.00 0.00 0.00 0.00 0.00 0.00 0.00 0.00 0.00 0.00 0.00 0.00 0.00 0.00 0.00 0.00 0.00 0.00 0.00 0.00 0.00
0.00 0.00 0.00 0.00 0.00 0.00 0.00 0.00 0.00 0.00 0.00 0.00 0.00 0.00 0.00 0.00 0.00 0.00 0.00 0.00 0.00 0.00 0.00 0.00 0.00 0.00 0.00 0.00 0.00 0.00 0.00 0.00 0.00 0.00 0.00 0.00 0.00 0.00 0.00 0.00 0.00 0.00 0.00 0.00 0.00
0.00 0.00 0.00 0.00 0.00 0.00 0.00 0.00 0.00 0.00 0.00 0.00 0.00 0.00 0.00 0.00 0.00 0.00 0.00 0.00 0.00 0.00 0.00 0.00 0.00 0.00 0.00 0.00 0.00 0.00 0.00 0.00 0.00 0.00 0.00 0.00 0.00 0.00 0.00 0.00 0.00 0.00 0.00 0.00 0.00
0.00 0.00 0.00 0.00 0.00 0.00 0.00 0.00 0.00 0.00 0.00 0.00 0.00 0.00 0.00 0.00 0.00 0.00 0.00 0.00 0.00 0.00 0.00 0.00 0.00 0.00 0.00 0.00 0.00 0.00 0.00 0.00 0.00 0.00 0.00 0.00 0.00 0.00 0.00 0.00 0.00 0.00 0.00 0.00 0.00
0.00 0.00 0.00 0.00 0.00 0.00 0.00 0.00 0.00 0.00 0.00 0.00 0.00 0.00 0.00 0.00 0.00 0.00 0.00 0.00 0.00 0.00 0.00 0.00 0.00 0.00 0.00 0.00 0.00 0.00 0.00 0.00 0.00 0.00 0.00 0.00 0.00 0.00 0.00 0.00 0.00 0.00 0.00 0.00 0.00
0.00 0.00 0.00 0.00 0.00 0.00 0.00 0.00 0.00 0.00 0.00 0.00 0.00 0.00 0.00 0.00 0.00 0.00 0.00 0.00 0.00 0.00 0.00 0.00 0.00 0.00 0.00 0.00 0.00 0.00 0.00 0.00 0.00 0.00 0.00 0.00 0.00 0.00 0.00 0.00 0.00 0.00 0.00 0.00 0.00
0.00 0.00 0.00 0.00 0.00 0.00 0.00 0.00 0.00 0.00 0.00 0.00 0.00 0.00 0.00 0.00 0.00 0.00 0.00 0.00 0.00 0.00 0.00 0.00 0.00 0.00 0.00 0.00 0.00 0.00 0.00 0.00 0.00 0.00 0.00 0.00 0.00 0.00 0.00 0.00 0.00 0.00 0.00 0.00 0.00
0.00 0.00 0.00 0.00 0.00 0.00 0.00 0.00 0.00 0.00 0.00 0.00 0.00 0.00 0.00 0.00 0.00 0.00 0.00 0.00 0.00 0.00 0.00 0.00 0.00 0.00 0.00 0.00 0.00 0.00 0.00 0.00 0.00 0.00 0.00 0.00 0.00 0.00 0.00 0.00 0.00 0.00 0.00 0.00 0.00
0.00 0.00 0.00 0.00 0.00 0.00 0.00 0.00 0.00 0.00 0.00 0.00 0.00 0.00 0.00 0.00 0.00 0.00 0.00 0.00 0.00 0.00 0.00 0.00 0.00 0.00 0.00 0.00 0.00 0.00 0.00 0.00 0.00 0.00 0.00 0.00 0.00 0.00 0.00 0.00 0.00 0.00 0.00 0.00 0.00
0.00 0.00 0.00 0.00 0.00 0.00 0.00 0.00 0.00 0.00 0.00 0.00 0.00 0.00 0.00 0.00 0.00 0.00 0.00 0.00 0.00 0.00 0.00 0.00 0.00 0.00 0.00 0.00 0.00 0.00 0.00 0.00 0.00 0.00 0.00 0.00 0.00 0.00 0.00 0.00 0.00 0.00 0.00 0.00 0.00
0.00 0.00 0.00 0.00 0.00 0.00 0.00 0.00 0.00 0.00 0.00 0.00 0.00 0.00 0.00 0.00 0.00 0.00 0.00 0.00 0.00 0.00 0.00 0.00 0.00 0.00 0.00 0.00 0.00 0.00 0.00 0.00 0.00 0.00 0.00 0.00 0.00 0.00 0.00 0.00 0.00 0.00 0.00 0.00 0.00
0.00 0.00 0.00 0.00 0.00 0.00 0.00 0.00 0.00 0.00 0.00 0.00 0.00 0.00 0.00 0.00 0.00 0.00 0.00 0.00 0.00 0.00 0.00 0.00 0.00 0.00 0.00 0.00 0.00 0.00 0.00 0.00 0.00 0.00 0.00 0.00 0.00 0.00 0.00 0.00 0.00 0.00 0.00 0.00 0.00
0.00 0.00 0.00 0.00 0.00 0.00 0.00 0.00 0.00 0.00 0.00 0.00 0.00 0.00 0.00 0.00 0.00 0.00 0.00 0.00 0.00 0.00 0.00 0.00 0.00 0.00 0.00 0.00 0.00 0.00 0.00 0.00 0.00 0.00 0.00 0.00 0.00 0.00 0.00 0.00 0.00 0.00 0.00 0.00 0.00
0.00 0.00 0.00 0.00 0.00 0.00 0.00 0.00 0.00 0.00 0.00 0.00 0.00 0.00 0.00 0.00 0.00 0.00 0.00 0.00 0.00 0.00 0.00 0.00 0.00 0.00 0.00 0.00 0.00 0.00 0.00 0.00 0.00 0.00 0.00 0.00 0.00 0.00 0.00 0.00 0.00 0.00 0.00 0.00 0.00
0.00 0.00 0.00 0.00 0.00 0.00 0.00 0.00 0.00 0.00 0.00 0.00 0.00 0.00 0.00 0.00 0.00 0.00 0.00 0.00 0.00 0.00 0.00 0.00 0.00 0.00 0.00 0.00 0.00 0.00 0.00 0.00 0.00 0.01 0.00 0.00 0.00 0.00 0.00 0.00 0.00 0.00 0.00 0.00 0.00
0.00 0.00 0.00 0.00 0.00 0.00 0.00 0.00 0.00 0.00 0.00 0.00 0.00 0.00 0.00 0.00 0.00 0.00 0.00 0.00 0.00 0.00 0.00 0.00 0.00 0.00 0.00 0.00 0.00 0.00 0.00 0.00 0.01 0.01 0.02 0.01 0.01 0.01 0.00 0.00 0.00 0.00 0.00 0.00 0.00
0.00 0.00 0.00 0.00 0.00 0.00 0.00 0.00 0.00 0.00 0.00 0.00 0.00 0.00 0.00 0.00 0.00 0.00 0.00 0.00 0.00 0.00 0.00 0.00 0.00 0.00 0.00 0.00 0.00 0.00 0.00 0.00 0.01 0.02 0.03 0.02 0.01 0.00 0.00 0.00 0.00 0.00 0.00 0.00 0.00
0.00 0.00 0.00 0.00 0.00 0.00 0.00 0.00 0.00 0.00 0.00 0.00 0.00 0.00 0.00 0.00 0.00 0.00 0.00 0.00 0.00 0.00 0.00 0.00 0.00 0.00 0.00 0.00 0.00 0.00 0.00 0.00 0.00 0.00 0.01 0.01 0.01 0.00 0.00 0.00 0.00 0.00 0.00 0.00 0.00
0.00 0.00 0.00 0.00 0.00 0.00 0.00 0.00 0.00 0.00 0.00 0.00 0.00 0.00 0.00 0.00 0.00 0.00 0.00 0.00 0.00 0.00 0.00 0.00 0.00 0.00 0.00 0.00 0.00 0.00 0.00 0.00 0.00 0.00 0.00 0.00 0.00 0.00 0.00 0.00 0.00 0.00 0.00 0.00 0.00
0.00 0.00 0.00 0.00 0.00 0.00 0.00 0.00 0.00 0.00 0.00 0.00 0.00 0.00 0.00 0.00 0.00 0.00 0.00 0.00 0.00 0.00 0.00 0.00 0.00 0.00 0.00 0.00 0.00 0.00 0.00 0.00 0.00 0.00 0.00 0.00 0.00 0.00 0.00 0.00 0.00 0.00 0.00 0.00 0.00
0.00 0.00 0.00 0.00 0.00 0.00 0.00 0.00 0.00 0.00 0.00 0.00 0.00 0.00 0.00 0.00 0.00 0.00 0.00 0.00 0.00 0.00 0.00 0.00 0.00 0.00 0.00 0.00 0.00 0.00 0.00 0.00 0.00 0.00 0.00 0.00 0.00 0.00 0.00 0.00 0.00 0.00 0.00 0.00 0.00
0.00 0.00 0.00 0.00 0.00 0.00 0.00 0.00 0.00 0.00 0.00 0.00 0.00 0.00 0.00 0.00 0.00 0.00 0.00 0.00 0.00 0.00 0.00 0.00 0.00 0.00 0.00 0.00 0.00 0.00 0.00 0.00 0.00 0.00 0.00 0.00 0.00 0.00 0.00 0.00 0.00 0.00 0.00 0.00 0.00
MSLP
1019.03 1018.57 1018.20 1017.83 1017.47 1017.17 1016.90 1016.66 1016.42 1016.29 1016.17 1015.99 1015.87 1015.73 1015.58 1015.42 1015.18 1014.48 1011.76 1010.12 1010.49 1011.10 1011.53 1010.27 1009.96 1009.41 1008.87 1007.87 1007.19 1006.80 1005.32 1002.89 1001.34 1000.76 1000.47 1001.47 1001.81 1001.68 1002.00 1001.86 1002.40 1002.66 1002.93 1004.38 1005.65
1019.02 1018.54 1018.14 1017.75 1017.36 1017.06 1016.80 1016.51 1016.26 1016.13 1015.99 1015.81 1015.68 1015.53 1015.42 1015.35 1014.05 1011.66 1010.20 1010.49 1010.87 1011.14 1010.70 1009.59 1009.05 1008.69 1007.93 1007.17 1006.69 1006.12 1004.42 1002.38 1001.27 1000.77 1001.13 1001.71 1002.16 1001.65 1002.20 1002.01 1002.12 1002.88 1004.06 1004.97 1005.73
1019.04 1018.53 1018.06 1017.65 1017.25 1016.86 1016.54 1016.28 1016.04 1015.83 1015.67 1015.54 1015.42 1015.32 1015.24 1015.09 1012.62 1008.75 1009.90 1010.52 1011.00 1011.01 1009.48 1009.00 1008.30 1008.12 1007.22 1006.48 1006.00 1005.43 1004.21 1002.53 1002.49 1002.69 1002.76 1002.64 1002.39 1002.18 1001.97 1001.03 1001.32 1002.12 1003.01 1004.68 1005.56
1019.06 1018.49 1017.98 1017.50 1017.02 1016.61 1016.27 1015.96 1015.69 1015.49 1015.30 1015.23 1015.13 1015.04 1015.04 1014.19 1009.78 1009.15 1010.12 1010.64 1010.98 1010.51 1009.30 1008.46 1007.90 1007.44 1006.44 1005.68 1005.48 1005.06 1004.17 1003.62 1003.55 1003.33 1003.79 1003.21 1002.58 1002.25 1001.87 1001.08 1000.90 1001.57 1002.60 1004.22 1005.15
1018.92 1018.32 1017.77 1017.28 1016.77 1016.25 1015.84 1015.52 1015.26 1015.06 1014.95 1014.89 1014.82 1014.78 1014.77 1011.66 1008.41 1009.52 1010.40 1010.82 1010.85 1010.52 1008.76 1007.99 1007.37 1006.68 1005.76 1005.16 1004.96 1004.92 1004.17 1004.06 1004.09 1004.02 1003.81 1003.43 1003.00 1002.71 1001.78 1001.48 1002.23 1002.88 1003.40 1004.04 1004.78
1018.77 1018.11 1017.51 1017.00 1016.47 1015.87 1015.36 1015.00 1014.75 1014.63 1014.56 1014.50 1014.45 1014.55 1013.15 1009.68 1008.19 1009.15 1009.69 1010.22 1009.69 1009.12 1008.17 1007.56 1006.79 1006.28 1005.68 1005.12 1005.04 1004.32 1004.44 1003.97 1003.91 1003.61 1003.53 1003.39 1002.99 1002.51 1002.37 1001.82 1002.60 1003.17 1003.17 1003.82 1004.44
1018.57 1017.90 1017.23 1016.63 1016.10 1015.51 1014.95 1014.54 1014.30 1014.19 1014.20 1014.22 1014.17 1013.44 1011.00 1008.40 1008.12 1008.56 1009.11 1009.29 1008.85 1008.43 1007.75 1007.48 1007.20 1007.05 1005.84 1005.42 1005.21 1004.89 1004.71 1004.18 1003.73 1003.49 1003.13 1003.10 1002.69 1001.79 1002.36 1001.79 1002.43 1003.00 1003.24 1003.14 1004.17
1018.36 1017.61 1016.89 1016.26 1015.67 1015.12 1014.60 1014.23 1013.82 1013.73 1013.91 1014.01 1014.07 1012.62 1009.27 1008.17 1008.14 1008.29 1008.49 1008.56 1008.39 1008.29 1007.86 1007.70 1007.88 1007.18 1006.32 1005.41 1005.57 1004.99 1004.43 1003.24 1002.19 1002.76 1002.88 1002.97 1001.77 1001.78 1002.05 1001.76 1002.44 1002.74 1003.03 1003.31 1003.65
1018.06 1017.31 1016.59 1015.94 1015.40 1014.88 1014.45 1014.09 1013.72 1013.66 1013.68 1013.83 1013.46 1011.42 1008.02 1009.17 1008.40 1007.94 1008.07 1007.93 1008.29 1008.30 1008.42 1008.38 1008.20 1007.12 1006.34 1005.94 1004.90 1004.13 1003.27 1002.31 1001.50 1001.70 1002.34 1002.64 1001.79 1001.13 1001.05 1001.81 1002.21 1002.77 1002.89 1003.26 1003.71
1017.97 1017.09 1016.17 1015.49 1014.96 1014.58 1014.26 1014.12 1013.87 1013.82 1013.58 1012.70 1011.08 1010.17 1007.97 1007.04 1007.34 1007.50 1007.84 1007.68 1007.97 1008.16 1008.27 1008.43 1007.62 1006.67 1005.83 1005.00 1003.48 1002.38 1001.93 1002.04 1001.26 1001.60 1002.52 1001.83 1001.94 1001.04 1001.05 1001.92 1002.66 1003.19 1003.17 1003.48 1003.71
1017.61 1016.69 1015.89 1015.14 1014.59 1014.24 1013.86 1013.44 1013.46 1012.16 1010.95 1008.74 1007.91 1007.22 1006.84 1006.98 1007.57 1007.40 1007.56 1007.78 1007.78 1007.73 1007.36 1007.30 1006.61 1005.24 1004.36 1003.90 1003.75 1003.33 1003.21 1002.19 1001.51 1001.89 1002.05 1002.06 1001.44 1001.51 1001.62 1002.80 1002.94 1003.45 1003.94 1004.04 1004.75
1017.57 1016.61 1015.64 1014.82 1014.24 1013.97 1013.53 1010.63 1011.38 1011.13 1009.29 1007.52 1006.97 1006.92 1006.72 1006.53 1006.56 1006.60 1007.40 1007.38 1007.28 1006.70 1006.85 1006.31 1005.35 1004.87 1004.27 1003.94 1004.12 1004.27 1003.75 1002.90 1002.46 1002.14 1002.22 1002.05 1001.52 1001.30 1002.53 1003.09 1003.49 1004.22 1004.87 1005.40 1006.28
1017.25 1016.35 1015.48 1014.70 1013.97 1013.59 1011.78 1011.44 1010.89 1010.67 1009.08 1006.75 1006.57 1006.19 1006.12 1006.56 1006.25 1005.78 1006.93 1006.69 1006.19 1006.09 1005.53 1004.94 1004.07 1003.98 1004.42 1004.09 1004.32 1004.15 1003.70 1003.02 1002.63 1001.97 1002.24 1002.49 1001.41 1001.67 1003.15 1004.21 1004.89 1005.22 1005.79 1006.33 1006.82
1017.51 1016.41 1015.58 1014.70 1014.22 1011.64 1010.85 1011.00 1010.59 1010.67 1008.23 1006.21 1005.86 1005.83 1005.89 1005.97 1005.88 1005.77 1005.83 1006.24 1005.90 1005.26 1004.83 1004.10 1004.10 1003.92 1004.11 1004.21 1004.01 1003.58 1003.49 1003.44 1003.09 1002.57 1001.84 1002.30 1000.79 1000.88 1002.71 1004.03 1004.82 1005.52 1006.05 1006.81 1007.57
1017.58 1016.72 1015.66 1015.42 1013.22 1011.17 1011.48 1010.83 1010.70 1010.55 1006.58 1005.53 1005.44 1005.90 1005.79 1005.56 1005.25 1005.44 1005.44 1005.71 1005.14 1004.79 1004.99 1003.69 1003.52 1003.80 1003.64 1003.62 1003.92 1003.58 1003.64 1003.20 1003.17 1002.92 1002.46 1001.23 1001.13 1000.43 1001.53 1003.14 1004.51 1005.37 1006.19 1006.94 1007.58
1017.81 1016.95 1015.84 1013.49 1012.36 1011.37 1011.09 1010.87 1010.78 1009.09 1005.73 1005.29 1005.28 1005.34 1005.10 1005.23 1005.01 1005.24 1005.56 1005.68 1005.14 1005.13 1004.60 1003.88 1003.99 1003.33 1003.29 1003.52 1003.64 1004.04 1003.75 1003.58 1003.61 1003.02 1001.76 1001.31 1000.51 999.80 1000.22 1002.05 1003.72 1005.82 1006.66 1006.94 1007.35
1017.67 1016.64 1016.23 1014.18 1012.17 1011.59 1011.15 1010.18 1008.73 1006.61 1006.15 1005.58 1005.57 1005.80 1005.42 1005.31 1005.33 1005.37 1005.05 1005.32 1005.36 1005.00 1004.47 1004.01 1003.43 1003.63 1003.71 1003.95 1003.76 1004.21 1003.88 1003.48 1003.24 1002.51 1001.25 1001.34 1000.72 999.78 999.93 1000.96 1003.32 1005.79 1006.93 1007.28 1007.58
1017.24 1015.83 1014.39 1013.03 1012.12 1011.79 1010.92 1009.34 1007.76 1006.26 1006.13 1006.74 1006.69 1006.52 1005.91 1005.45 1005.49 1005.84 1005.37 1004.89 1005.65 1005.75 1005.05 1003.97 1002.92 1003.32 1003.73 1004.91 1004.24 1003.58 1003.94 1003.57 1002.72 1002.13 1001.49 1001.72 1001.05 1001.95 1001.68 1002.60 1004.29 1005.89 1007.13 1007.69 1007.98
1016.74 1013.41 1012.49 1012.26 1012.23 1011.88 1010.50 1008.27 1006.60 1006.85 1007.67 1007.63 1007.13 1006.37 1005.89 1005.98 1006.62 1005.75 1005.82 1005.43 1005.97 1006.77 1006.28 1005.08 1004.27 1005.07 1005.83 1006.24 1006.12 1005.67 1004.15 1004.91 1005.11 1003.93 1003.05 1002.30 1003.89 1004.67 1005.04 1005.43 1005.99 1006.58 1007.31 1008.07 1008.63
1017.23 1013.68 1011.77 1012.48 1012.13 1011.59 1010.01 1008.25 1007.78 1008.50 1008.87 1008.62 1007.80 1006.88 1006.19 1005.73 1006.39 1006.08 1005.97 1006.06 1007.00 1007.84 1007.75 1006.88 1006.65 1006.15 1007.30 1007.73 1006.91 1007.51 1007.11 1006.82 1006.33 1006.70 1005.39 1003.59 1003.01 1003.19 1004.56 1005.53 1006.26 1006.95 1007.59 1008.54 1009.14
1016.92 1013.23 1012.41 1012.33 1011.68 1010.71 1009.11 1007.98 1008.63 1008.92 1009.60 1009.19 1008.53 1007.83 1007.41 1007.13 1007.06 1006.94 1006.59 1007.47 1008.33 1008.30 1008.74 1008.50 1008.18 1007.56 1007.56 1008.17 1008.58 1009.74 1009.64 1011.17 1010.90 1010.33 1009.20 1006.99 1005.09 1005.62 1004.65 1005.53 1006.52 1006.95 1007.75 1008.92 1009.52
1016.48 1013.31 1012.25 1012.26 1011.05 1009.55 1009.25 1009.79 1011.32 1009.84 1009.80 1009.76 1009.51 1009.05 1008.42 1007.99 1007.72 1007.62 1007.46 1007.79 1009.38 1009.51 1009.12 1009.18 1009.31 1008.45 1008.27 1008.76 1010.00 1011.45 1012.27 1013.89 1014.57 1013.13 1012.97 1011.08 1009.29 1009.25 1008.60 1007.36 1006.95 1007.98 1009.07 1009.64 1010.16
1017.39 1014.09 1012.55 1012.60 1010.97 1009.81 1010.20 1010.80 1010.86 1010.50 1010.07 1009.80 1009.54 1009.35 1008.98 1008.92 1008.70 1008.33 1008.35 1009.38 1010.20 1010.14 1010.18 1010.25 1010.04 1009.18 1008.47 1009.31 1010.67 1011.41 1012.04 1013.49 1015.50 1015.92 1014.67 1013.75 1010.75 1010.82 1010.45 1009.79 1009.71 1009.76 1009.67 1010.09 1010.57
1018.24 1014.63 1012.60 1012.43 1013.03 1012.99 1012.12 1011.73 1010.71 1010.51 1010.90 1010.43 1010.21 1009.73 1009.76 1009.47 1009.15 1009.04 1009.06 1009.90 1010.89 1010.74 1011.87 1011.83 1011.03 1010.40 1009.52 1008.92 1010.59 1010.78 1011.98 1012.69 1013.93 1014.66 1013.52 1013.19 1012.12 1012.04 1011.46 1011.07 1010.97 1010.08 1009.93 1010.50 1010.57
1018.24 1016.35 1016.67 1014.14 1013.34 1014.07 1013.87 1012.91 1011.85 1011.07 1011.00 1011.12 1010.61 1010.24 1009.95 1009.55 1009.06 1008.87 1009.49 1009.68 1011.13 1011.78 1012.08 1012.16 1011.39 1010.78 1010.16 1010.01 1010.14 1010.36 1010.61 1011.32 1012.17 1012.79 1012.57 1011.34 1010.77 1010.87 1011.68 1010.58 1009.83 1009.75 1010.47 1011.01 1011.15
1020.07 1018.90 1017.34 1016.44 1015.43 1014.89 1014.16 1013.33 1012.43 1011.85 1011.94 1011.51 1010.84 1010.67 1009.91 1009.78 1009.51 1008.99 1009.06 1009.47 1010.11 1010.65 1011.65 1011.78 1011.65 1011.18 1010.80 1010.66 1010.32 1009.88 1010.30 1010.37 1010.44 1010.56 1010.72 1010.65 1010.41 1010.37 1010.16 1010.16 1010.31 1010.67 1011.03 1011.32 1011.72
1020.98 1020.24 1019.59 1017.24 1015.52 1014.88 1014.00 1013.70 1013.39 1013.42 1013.22 1012.60 1012.01 1011.62 1011.11 1010.81 1010.73 1009.91 1010.07 1010.12 1010.39 1010.67 1010.95 1011.63 1011.75 1011.44 1010.93 1011.04 1010.35 1010.18 1009.38 1009.14 1009.08 1009.30 1009.28 1009.22 1009.29 1009.46 1010.50 1010.96 1010.79 1011.23 1011.61 1011.77 1012.05
Thickness
5722 5726 5729 5732 5736 5739 5742 5744 5746 5747 5748 5750 5752 5753 5754 5756 5759 5767 5780 5799 5797 5794 5791 5800 5798 5799 5803 5801 5811 5812 5786 5794 5819 5827 5839 5844 5835 5854 5861 5850 5851 5856 5852 5849 5850
5722 5726 5729 5732 5736 5739 5741 5744 5746 5747 5749 5751 5752 5753 5755 5756 5768 5781 5799 5797 5794 5792 5792 5792 5788 5796 5792 5797 5802 5794 5790 5809 5843 5849 5835 5836 5834 5843 5838 5840 5840 5841 5846 5847 5844
5721 5725 5729 5733 5736 5740 5742 5745 5747 5749 5751 5752 5753 5754 5755 5756 5772 5800 5800 5796 5792 5792 5803 5802 5802 5794 5787 5800 5800 5799 5789 5824 5824 5829 5830 5825 5827 5841 5834 5837 5848 5837 5839 5839 5834
5720 5725 5729 5733 5737 5741 5744 5747 5749 5751 5753 5754 5755 5756 5756 5763 5772 5801 5797 5793 5791 5793 5799 5797 5795 5784 5786 5786 5803 5785 5808 5813 5815 5822 5814 5814 5831 5824 5836 5849 5868 5862 5851 5839 5829
5719 5724 5729 5733 5738 5742 5746 5749 5752 5754 5755 5756 5756 5757 5760 5772 5791 5799 5794 5790 5789 5790 5793 5792 5787 5789 5783 5796 5800 5788 5802 5809 5812 5813 5814 5821 5815 5818 5829 5853 5849 5844 5841 5833 5829
5719 5724 5729 5734 5738 5743 5748 5751 5754 5756 5756 5757 5758 5757 5767 5767 5807 5800 5796 5791 5794 5794 5795 5798 5795 5802 5793 5794 5790 5804 5800 5805 5808 5811 5813 5806 5811 5819 5825 5845 5832 5831 5833 5831 5827
5719 5724 5729 5735 5739 5745 5750 5754 5757 5758 5759 5759 5759 5765 5774 5785 5808 5804 5800 5795 5801 5800 5792 5801 5802 5788 5798 5785 5802 5796 5779 5792 5799 5804 5804 5813 5797 5809 5825 5836 5825 5823 5827 5832 5825
5719 5725 5731 5736 5741 5746 5751 5755 5759 5760 5759 5759 5758 5768 5775 5806 5806 5803 5803 5797 5804 5804 5800 5803 5798 5789 5787 5800 5785 5776 5781 5770 5805 5803 5806 5801 5783 5813 5827 5826 5815 5819 5822 5823 5825
5721 5727 5732 5737 5741 5746 5751 5755 5757 5758 5759 5758 5761 5769 5780 5796 5790 5802 5802 5790 5792 5793 5792 5793 5786 5778 5783 5764 5765 5775 5760 5776 5791 5809 5800 5790 5784 5817 5829 5819 5812 5814 5818 5817 5816
5721 5727 5735 5740 5744 5748 5751 5752 5753 5754 5756 5761 5774 5761 5785 5786 5795 5797 5799 5795 5781 5778 5771 5768 5769 5762 5768 5764 5749 5773 5779 5777 5783 5794 5788 5786 5782 5811 5817 5807 5802 5803 5809 5811 5811
5723 5730 5736 5742 5746 5749 5751 5758 5754 5757 5765 5776 5781 5780 5784 5794 5794 5785 5789 5779 5775 5766 5748 5760 5749 5750 5767 5776 5773 5770 5764 5767 5786 5794 5778 5777 5784 5794 5799 5791 5792 5792 5793 5797 5792
5722 5729 5737 5743 5747 5749 5753 5768 5758 5759 5753 5784 5785 5781 5787 5790 5769 5777 5783 5759 5754 5743 5751 5748 5739 5762 5773 5771 5759 5753 5748 5754 5771 5783 5773 5773 5776 5794 5778 5781 5782 5778 5776 5775 5772
5722 5728 5735 5740 5746 5749 5761 5755 5764 5763 5749 5772 5778 5775 5777 5776 5761 5766 5768 5760 5751 5741 5747 5740 5757 5764 5754 5752 5740 5741 5741 5749 5751 5774 5768 5760 5765 5767 5763 5766 5764 5766 5765 5763 5760
5717 5725 5731 5738 5740 5759 5755 5759 5761 5757 5739 5756 5763 5768 5772 5770 5752 5774 5773 5756 5746 5739 5746 5748 5759 5751 5739 5735 5742 5726 5754 5748 5745 5743 5732 5759 5736 5762 5753 5748 5750 5749 5750 5749 5747
5713 5719 5727 5727 5743 5748 5747 5755 5754 5745 5726 5760 5756 5775 5766 5754 5758 5756 5772 5753 5737 5739 5737 5739 5743 5733 5732 5734 5742 5730 5748 5746 5740 5733 5736 5752 5738 5766 5763 5735 5735 5741 5742 5742 5742
5706 5713 5721 5735 5742 5746 5748 5749 5741 5720 5716 5743 5754 5745 5744 5747 5748 5751 5745 5752 5751 5733 5737 5738 5753 5748 5740 5743 5740 5737 5733 5734 5731 5732 5715 5740 5750 5757 5761 5742 5736 5725 5731 5734 5736
5703 5710 5712 5721 5726 5738 5741 5737 5717 5719 5745 5732 5730 5734 5733 5727 5728 5731 5726 5718 5710 5701 5703 5724 5729 5740 5740 5721 5733 5721 5716 5695 5695 5703 5706 5749 5742 5758 5770 5765 5733 5712 5717 5723 5727
5701 5711 5719 5724 5729 5730 5729 5718 5695 5728 5724 5728 5720 5719 5712 5722 5720 5714 5715 5712 5712 5703 5700 5703 5710 5722 5731 5700 5710 5724 5713 5699 5682 5700 5719 5734 5724 5721 5745 5742 5731 5720 5710 5713 5714
5697 5720 5721 5722 5720 5721 5713 5702 5716 5716 5711 5703 5708 5702 5707 5708 5700 5706 5700 5705 5698 5691 5678 5689 5700 5703 5702 5701 5700 5691 5701 5717 5687 5712 5709 5724 5705 5697 5706 5704 5703 5700 5700 5698 5699
5683 5705 5715 5712 5713 5708 5701 5696 5705 5705 5697 5694 5682 5699 5691 5702 5686 5692 5690 5696 5678 5681 5683 5678 5657 5691 5677 5683 5693 5676 5693 5669 5692 5645 5654 5705 5718 5700 5689 5686 5687 5683 5684 5683 5685
5678 5693 5703 5704 5706 5697 5689 5702 5697 5698 5687 5679 5678 5680 5681 5678 5679 5674 5680 5670 5664 5666 5666 5662 5649 5658 5667 5654 5648 5634 5645 5628 5636 5633 5622 5650 5701 5678 5696 5692 5676 5677 5675 5671 5669
5668 5672 5696 5695 5681 5697 5686 5683 5656 5677 5680 5671 5670 5667 5665 5668 5661 5660 5658 5660 5652 5651 5643 5648 5637 5629 5641 5650 5642 5622 5609 5589 5570 5603 5596 5618 5631 5647 5651 5659 5666 5660 5653 5656 5656
5650 5665 5684 5676 5665 5677 5675 5665 5664 5660 5662 5660 5657 5659 5662 5648 5637 5648 5648 5641 5637 5635 5629 5631 5622 5613 5625 5629 5621 5608 5611 5595 5571 5555 5569 5573 5620 5633 5620 5630 5634 5635 5638 5640 5639
5635 5645 5663 5664 5652 5638 5640 5640 5648 5656 5646 5650 5645 5648 5638 5633 5639 5628 5628 5624 5623 5622 5603 5607 5609 5604 5603 5622 5606 5599 5596 5597 5580 5562 5579 5566 5589 5590 5605 5606 5610 5621 5625 5626 5628
5624 5624 5615 5626 5633 5623 5621 5626 5627 5631 5637 5635 5628 5629 5625 5617 5623 5621 5619 5618 5607 5593 5597 5596 5591 5602 5608 5609 5608 5604 5602 5598 5583 5579 5570 5596 5596 5594 5592 5608 5616 5613 5612 5609 5609
5590 5591 5602 5603 5607 5605 5604 5610 5615 5618 5614 5610 5613 5617 5622 5612 5614 5611 5615 5608 5600 5601 5593 5594 5582 5591 5587 5597 5597 5594 5595 5596 5597 5596 5591 5589 5586 5602 5606 5608 5600 5597 5594 5593 5591
5574 5575 5572 5584 5595 5595 5599 5599 5596 5595 5594 5598 5597 5596 5596 5598 5603 5610 5605 5604 5598 5591 5587 5581 5580 5579 5572 5587 5587 5575 5593 5600 5603 5602 5598 5588 5598 5598 5584 5583 5587 5582 5581 5580 5580